Simultaneous Nadir Overpasses (SNOs) Predictions

Prediction of SNOs between AQUA and METOP-B Satellite Orbit:

Table of predicted SNOs for the next 14.0 days since TLE Epoch: 10/18/2014
Index Date (AQUA) Time (AQUA) Lat,Lon (AQUA) SZA (AQUA ) Date (METOP-B) Time (METOP-B) Lat,Lon (METOP-B) SZA (METOP-B ) Distance(km) Time Diff (sec)
1 10/19/2014 20:09:09 73.72,-127.84 83.81 10/19/2014 20:08:10 73.74,-127.93 83.83 3.59 59
2 10/19/2014 20:58:36 -73.81, 39.62 96.10 10/19/2014 20:58:50 -73.80, 39.53 96.10 3.30 14
3 10/19/2014 21:48:12 74.24,-153.72 84.37 10/19/2014 21:49:21 74.26,-152.00 84.37 51.93 69
4 10/22/2014 15:43:24 73.77, -61.50 84.86 10/22/2014 15:42:27 73.79, -61.41 84.88 3.31 57
5 10/22/2014 16:32:51 -73.85, 105.97 95.05 10/22/2014 16:33:07 -73.84, 106.06 95.06 2.94 16
6 10/22/2014 17:22:29 74.39, -87.63 85.52 10/22/2014 17:23:36 74.40, -85.22 85.51 72.35 67
7 10/25/2014 11:17:39 73.78, 4.91 85.85 10/25/2014 11:16:46 73.77, 4.99 85.85 2.50 53
8 10/25/2014 12:07:06 -73.86, 172.39 94.06 10/25/2014 12:07:26 -73.84, 172.47 94.08 3.32 20
9 10/25/2014 12:56:47 74.55, -21.59 86.67 10/25/2014 12:57:52 74.54, -18.44 86.63 93.56 65
10 10/28/2014 06:51:53 73.76, 71.41 86.78 10/28/2014 06:51:05 73.76, 71.37 86.79 1.05 48
11 10/28/2014 07:41:20 -73.83,-121.11 93.14 10/28/2014 07:41:45 -73.82,-121.14 93.14 1.12 25
12 10/31/2014 02:26:06 73.75, 137.87 87.71 10/31/2014 02:25:22 73.79, 137.87 87.74 3.84 44
13 10/31/2014 03:15:33 -73.82, -54.64 92.22 10/31/2014 03:16:03 -73.81, -54.75 92.23 3.67 30




NCC Satellite Simultaneous Nadir Overpasses (SNOs) Prediction Service
